Time,TemperatureF,DewpointF,PressureIn,WindDirection,WindDirectionDegrees,WindSpeedMPH,WindSpeedGustMPH,Humidity,HourlyPrecipIn,Conditions,Clouds,dailyrainin,SolarRadiationWatts/m^2,SoftwareType,DateUTC
2013-04-17 00:03:00,46.8,25.4,30.12,ESE,112,3.6,5.8,43,0.00,CLR,SCT,0.00,0.0,WeatherDisplay:10.37,2013-04-17 05:03:00,
2013-04-17 00:09:00,46.6,25.3,30.12,SSE,158,4.7,5.9,43,0.00,CLR,SCT,0.00,0.0,WeatherDisplay:10.37,2013-04-17 05:09:00,
2013-04-17 00:14:00,46.6,25.3,30.12,ESE,112,4.0,5.8,43,0.00,CLR,SCT,0.00,0.0,WeatherDisplay:10.37,2013-04-17 05:14:00,
2013-04-17 00:19:00,46.6,25.8,30.12,ESE,112,4.7,6.9,44,0.00,CLR,SCT,0.00,0.0,WeatherDisplay:10.37,2013-04-17 05:19:00,
2013-04-17 00:24:00,46.6,25.8,30.12,ESE,112,3.8,5.6,44,0.00,CLR,SCT,0.00,0.0,WeatherDisplay:10.37,2013-04-17 05:24:00,
2013-04-17 00:29:00,46.6,25.8,30.12,ESE,112,3.8,6.9,44,0.00,CLR,SCT,0.00,0.0,WeatherDisplay:10.37,2013-04-17 05:29:00,
2013-04-17 00:34:00,46.6,25.8,30.12,ENE,68,2.6,4.6,44,0.00,CLR,SCT,0.00,0.0,WeatherDisplay:10.37,2013-04-17 05:34:00,
2013-04-17 00:39:00,46.4,25.6,30.12,East,90,4.5,5.8,44,0.00,CLR,SCT,0.00,0.0,WeatherDisplay:10.37,2013-04-17 05:39:00,
2013-04-17 00:44:00,46.4,25.6,30.12,ENE,68,4.5,6.4,44,0.00,CLR,SCT,0.00,0.0,WeatherDisplay:10.37,2013-04-17 05:44:00,
2013-04-17 00:50:00,46.4,25.1,30.12,NE,45,4.9,9.2,43,0.00,CLR,SCT,0.00,0.0,WeatherDisplay:10.37,2013-04-17 05:50:00,
2013-04-17 00:55:00,46.4,25.1,30.09,ESE,112,4.9,6.9,43,0.00,CLR,SCT,0.00,0.0,WeatherDisplay:10.37,2013-04-17 05:55:00,
2013-04-17 01:00:00,46.4,25.1,30.09,East,90,4.3,6.9,43,0.00,CLR,SCT,0.00,0.0,WeatherDisplay:10.37,2013-04-17 06:00:00,
2013-04-17 01:05:00,46.4,25.6,30.09,ENE,68,2.0,2.9,44,0.00,CLR,SCT,0.00,0.0,WeatherDisplay:10.37,2013-04-17 06:05:00,
2013-04-17 01:10:00,46.4,25.6,30.12,ENE,68,3.1,4.3,44,0.00,CLR,SCT,0.00,0.0,WeatherDisplay:10.37,2013-04-17 06:10:00,
2013-04-17 01:15:00,46.2,25.5,30.12,SSE,158,3.6,5.8,44,0.00,CLR,SCT,0.00,0.0,WeatherDisplay:10.37,2013-04-17 06:15:00,
2013-04-17 01:20:00,46.2,26.0,30.12,North,0,2.6,5.8,45,0.00,CLR,SCT,0.00,0.0,WeatherDisplay:10.37,2013-04-17 06:20:00,
2013-04-17 01:26:00,46.2,26.0,30.12,ENE,68,2.6,4.9,45,0.00,CLR,SCT,0.00,0.0,WeatherDisplay:10.37,2013-04-17 06:26:00,
2013-04-17 01:31:00,46.0,25.3,30.12,ENE,68,4.9,6.9,44,0.00,CLR,SCT,0.00,0.0,WeatherDisplay:10.37,2013-04-17 06:31:00,
2013-04-17 01:36:00,46.0,25.3,30.12,ESE,112,4.7,8.1,44,0.00,CLR,SCT,0.00,0.0,WeatherDisplay:10.37,2013-04-17 06:36:00,
2013-04-17 01:41:00,45.9,25.2,30.12,ENE,68,4.5,6.9,44,0.00,CLR,SCT,0.00,0.0,WeatherDisplay:10.37,2013-04-17 06:41:00,
2013-04-17 01:46:00,45.9,25.2,30.12,NNE,22,2.4,5.8,44,0.00,CLR,SCT,0.00,0.0,WeatherDisplay:10.37,2013-04-17 06:46:00,
2013-04-17 01:52:00,45.9,25.2,30.12,ESE,112,3.6,8.1,44,0.00,CLR,SCT,0.00,0.0,WeatherDisplay:10.37,2013-04-17 06:52:00,
2013-04-17 01:57:00,45.9,25.7,30.09,NNW,338,4.3,5.9,45,0.00,CLR,SCT,0.00,0.0,WeatherDisplay:10.37,2013-04-17 06:57:00,
2013-04-17 02:02:00,45.7,25.5,30.09,ESE,112,6.2,9.2,45,0.00,CLR,SCT,0.00,0.0,WeatherDisplay:10.37,2013-04-17 07:02:00,
2013-04-17 02:07:00,45.7,25.5,30.09,ESE,112,5.6,9.8,45,0.00,CLR,SCT,0.00,0.0,WeatherDisplay:10.37,2013-04-17 07:07:00,
2013-04-17 02:12:00,45.7,25.5,30.09,ENE,68,2.6,6.9,45,0.00,CLR,SCT,0.00,0.0,WeatherDisplay:10.37,2013-04-17 07:12:00,
2013-04-17 02:18:00,45.5,25.4,30.09,NNE,22,3.1,5.8,45,0.00,CLR,SCT,0.00,0.0,WeatherDisplay:10.37,2013-04-17 07:18:00,
2013-04-17 02:23:00,45.5,25.4,30.09,ESE,112,3.6,5.8,45,0.00,CLR,SCT,0.00,0.0,WeatherDisplay:10.37,2013-04-17 07:23:00,
2013-04-17 02:28:00,45.5,25.4,30.09,ENE,68,4.7,8.1,45,0.00,CLR,SCT,0.00,0.0,WeatherDisplay:10.37,2013-04-17 07:28:00,
2013-04-17 02:33:00,45.5,25.4,30.09,SSE,158,4.0,9.2,45,0.00,CLR,SCT,0.00,0.0,WeatherDisplay:10.37,2013-04-17 07:33:00,
2013-04-17 02:38:00,45.3,25.2,30.09,ENE,68,5.6,7.4,45,0.00,CLR,SCT,0.00,0.0,WeatherDisplay:10.37,2013-04-17 07:38:00,
2013-04-17 02:43:00,45.3,25.2,30.06,ESE,112,5.4,6.2,45,0.00,CLR,SCT,0.00,0.0,WeatherDisplay:10.37,2013-04-17 07:43:00,
2013-04-17 02:48:00,45.3,25.2,30.06,ENE,68,4.5,6.9,45,0.00,CLR,SCT,0.00,0.0,WeatherDisplay:10.37,2013-04-17 07:48:00,
2013-04-17 02:53:00,45.3,25.2,30.06,ENE,68,2.0,5.8,45,0.00,CLR,SCT,0.00,0.0,WeatherDisplay:10.37,2013-04-17 07:53:00,
2013-04-17 02:58:00,45.3,25.2,30.06,East,90,3.8,4.9,45,0.00,CLR,SCT,0.00,0.0,WeatherDisplay:10.37,2013-04-17 07:58:00,
2013-04-17 03:03:00,45.3,25.2,30.06,ESE,112,3.3,4.6,45,0.00,CLR,SCT,0.00,0.0,WeatherDisplay:10.37,2013-04-17 08:03:00,
2013-04-17 03:09:00,45.1,25.0,30.06,East,90,4.0,5.8,45,0.00,CLR,SCT,0.00,0.0,WeatherDisplay:10.37,2013-04-17 08:09:00,
2013-04-17 03:14:00,45.1,25.0,30.06,NNE,22,4.9,8.1,45,0.00,CLR,SCT,0.00,0.0,WeatherDisplay:10.37,2013-04-17 08:14:00,
2013-04-17 03:19:00,45.1,25.0,30.06,ENE,68,3.8,6.0,45,0.00,CLR,SCT,0.00,0.0,WeatherDisplay:10.37,2013-04-17 08:19:00,
2013-04-17 03:24:00,45.1,25.6,30.06,NE,45,3.6,5.4,46,0.00,CLR,SCT,0.00,0.0,WeatherDisplay:10.37,2013-04-17 08:24:00,
2013-04-17 03:29:00,45.0,25.4,30.06,East,90,3.3,3.5,46,0.00,CLR,SCT,0.00,0.0,WeatherDisplay:10.37,2013-04-17 08:29:00,
2013-04-17 03:34:00,45.0,25.4,30.06,ENE,68,3.1,8.1,46,0.00,CLR,SCT,0.00,0.0,WeatherDisplay:10.37,2013-04-17 08:34:00,
2013-04-17 03:40:00,44.8,25.2,30.06,ENE,68,4.0,8.1,46,0.00,CLR,SCT,0.00,0.0,WeatherDisplay:10.37,2013-04-17 08:40:00,
2013-04-17 03:45:00,44.8,25.2,30.06,East,90,4.5,5.8,46,0.00,CLR,SCT,0.00,0.0,WeatherDisplay:10.37,2013-04-17 08:45:00,
2013-04-17 03:50:00,44.8,25.8,30.06,SSE,158,3.8,5.8,47,0.00,CLR,SCT,0.00,0.0,WeatherDisplay:10.37,2013-04-17 08:50:00,
2013-04-17 03:55:00,44.8,25.8,30.06,ESE,112,4.3,8.1,47,0.00,CLR,SCT,0.00,0.0,WeatherDisplay:10.37,2013-04-17 08:55:00,
2013-04-17 04:00:00,44.8,25.8,30.06,ENE,68,5.9,5.9,47,0.00,CLR,SCT,0.00,0.0,WeatherDisplay:10.37,2013-04-17 09:00:00,
2013-04-17 04:06:00,44.8,26.3,30.06,ESE,112,4.3,9.7,48,0.00,CLR,SCT,0.00,0.0,WeatherDisplay:10.37,2013-04-17 09:06:00,
2013-04-17 04:11:00,44.8,26.3,30.06,ENE,68,3.1,3.8,48,0.00,CLR,SCT,0.00,0.0,WeatherDisplay:10.37,2013-04-17 09:11:00,
2013-04-17 04:17:00,44.8,26.3,30.06,NNE,22,3.3,5.8,48,0.00,CLR,SCT,0.00,0.0,WeatherDisplay:10.37,2013-04-17 09:17:00,
2013-04-17 04:22:00,44.8,26.3,30.06,ENE,68,2.9,5.8,48,0.00,CLR,SCT,0.00,0.0,WeatherDisplay:10.37,2013-04-17 09:22:00,
2013-04-17 04:27:00,44.6,26.1,30.03,ESE,112,2.6,4.6,48,0.00,CLR,SCT,0.00,0.0,WeatherDisplay:10.37,2013-04-17 09:27:00,
2013-04-17 04:32:00,44.6,26.1,30.03,ESE,112,4.9,5.8,48,0.00,CLR,SCT,0.00,0.0,WeatherDisplay:10.37,2013-04-17 09:32:00,
2013-04-17 04:37:00,44.6,26.6,30.03,ESE,112,3.6,4.6,49,0.00,CLR,SCT,0.00,0.0,WeatherDisplay:10.37,2013-04-17 09:37:00,
2013-04-17 04:42:00,44.6,26.6,30.00,ESE,112,5.9,8.1,49,0.00,CLR,SCT,0.00,0.0,WeatherDisplay:10.37,2013-04-17 09:42:00,
2013-04-17 04:47:00,44.6,26.6,30.00,ENE,68,4.0,5.9,49,0.00,CLR,SCT,0.00,0.0,WeatherDisplay:10.37,2013-04-17 09:47:00,
2013-04-17 04:52:00,44.6,26.6,30.00,ESE,112,4.5,9.2,49,0.00,CLR,SCT,0.00,0.0,WeatherDisplay:10.37,2013-04-17 09:52:00,
2013-04-17 04:57:00,44.6,26.6,30.00,ENE,68,4.7,7.1,49,0.00,CLR,SCT,0.00,0.0,WeatherDisplay:10.37,2013-04-17 09:57:00,
2013-04-17 05:03:00,44.6,26.6,30.00,ENE,68,4.0,6.2,49,0.00,CLR,SCT,0.00,0.0,WeatherDisplay:10.37,2013-04-17 10:03:00,
2013-04-17 05:08:00,44.6,27.1,30.00,ESE,112,3.3,5.8,50,0.00,CLR,SCT,0.00,0.0,WeatherDisplay:10.37,2013-04-17 10:08:00,
2013-04-17 05:13:00,44.6,28.0,30.00,ESE,112,4.3,4.9,52,0.00,CLR,SCT,0.00,0.0,WeatherDisplay:10.37,2013-04-17 10:13:00,
2013-04-17 05:18:00,44.2,28.2,30.00,ENE,68,3.6,5.8,53,0.00,CLR,SCT,0.00,0.0,WeatherDisplay:10.37,2013-04-17 10:18:00,
2013-04-17 05:23:00,43.9,29.6,30.00,NNE,22,3.8,6.9,57,0.00,CLR,SCT,0.00,0.0,WeatherDisplay:10.37,2013-04-17 10:23:00,
2013-04-17 05:28:00,43.7,30.3,29.94,ENE,68,4.7,6.4,59,0.00,CLR,SCT,0.00,0.0,WeatherDisplay:10.37,2013-04-17 10:28:00,
2013-04-17 05:33:00,43.5,30.5,29.94,East,90,4.9,8.5,60,0.00,CLR,SCT,0.00,0.0,WeatherDisplay:10.37,2013-04-17 10:33:00,
2013-04-17 05:38:00,43.3,31.2,29.94,NE,45,3.1,3.5,62,0.00,CLR,SCT,0.00,0.0,WeatherDisplay:10.37,2013-04-17 10:38:00,
2013-04-17 05:44:00,43.0,31.6,29.97,East,90,4.3,6.9,64,0.00,CLR,SCT,0.00,0.0,WeatherDisplay:10.37,2013-04-17 10:44:00,
2013-04-17 05:49:00,42.8,31.5,29.97,ESE,112,5.4,8.5,64,0.00,CLR,SCT,0.00,0.0,WeatherDisplay:10.37,2013-04-17 10:49:00,
2013-04-17 05:54:00,42.8,33.0,29.97,SW,225,2.4,2.4,68,0.00,CLR,SCT,0.00,0.0,WeatherDisplay:10.37,2013-04-17 10:54:00,
2013-04-17 05:59:00,42.8,34.7,29.97,WNW,292,3.3,5.9,73,0.00,CLR,SCT,0.00,0.0,WeatherDisplay:10.37,2013-04-17 10:59:00,
2013-04-17 06:04:00,42.4,35.4,29.97,North,0,2.9,6.0,76,0.05,RA,SCT,0.05,0.0,WeatherDisplay:10.37,2013-04-17 11:04:00,
2013-04-17 06:09:00,42.3,35.9,29.97,WSW,248,2.2,3.5,78,0.09,RA,SCT,0.09,0.0,WeatherDisplay:10.37,2013-04-17 11:09:00,
2013-04-17 06:14:00,41.9,35.5,30.03,NNE,22,2.0,3.5,78,0.09,RA,SCT,0.09,0.0,WeatherDisplay:10.37,2013-04-17 11:14:00,
2013-04-17 06:19:00,41.7,36.0,30.03,NNE,22,1.1,2.3,80,0.13,RA,SCT,0.13,0.0,WeatherDisplay:10.37,2013-04-17 11:19:00,
2013-04-17 06:24:00,41.5,35.8,30.03,SSW,202,0.9,1.6,80,0.13,RA,SCT,0.13,0.0,WeatherDisplay:10.37,2013-04-17 11:24:00,
2013-04-17 06:29:00,41.5,35.2,30.03,NE,45,0.0,0.9,78,0.17,RA,SCT,0.17,0.0,WeatherDisplay:10.37,2013-04-17 11:29:00,
2013-04-17 06:34:00,41.5,36.1,30.03,North,0,2.4,3.5,81,0.17,RA,SCT,0.17,0.0,WeatherDisplay:10.37,2013-04-17 11:34:00,
2013-04-17 06:40:00,41.2,37.0,30.03,ENE,68,3.3,4.6,85,0.17,CLR,SCT,0.17,0.0,WeatherDisplay:10.37,2013-04-17 11:40:00,
2013-04-17 06:45:00,41.0,37.4,29.97,NNE,22,4.0,4.6,87,0.21,RA,SCT,0.21,0.0,WeatherDisplay:10.37,2013-04-17 11:45:00,
2013-04-17 06:50:00,41.0,37.4,29.97,ESE,112,5.6,9.2,87,0.25,RA,SCT,0.25,0.0,WeatherDisplay:10.37,2013-04-17 11:50:00,
2013-04-17 06:55:00,40.8,37.5,29.94,ESE,112,5.9,8.1,88,0.25,RA,SCT,0.25,0.0,WeatherDisplay:10.37,2013-04-17 11:55:00,
2013-04-17 07:01:00,40.6,37.4,29.94,ENE,68,4.3,9.2,88,0.25,CLR,SCT,0.25,0.0,WeatherDisplay:10.37,2013-04-17 12:01:00,
2013-04-17 07:06:00,40.6,37.7,29.94,NNE,22,6.0,8.1,89,0.25,RA,SCT,0.30,0.0,WeatherDisplay:10.37,2013-04-17 12:06:00,
2013-04-17 07:11:00,40.5,37.8,29.88,NNE,22,4.9,5.9,90,0.21,RA,SCT,0.30,0.0,WeatherDisplay:10.37,2013-04-17 12:11:00,
2013-04-17 07:16:00,40.5,38.3,29.88,North,0,3.8,8.1,92,0.17,CLR,SCT,0.30,0.0,WeatherDisplay:10.37,2013-04-17 12:16:00,
2013-04-17 07:21:00,40.5,38.3,29.88,ESE,112,4.0,5.4,92,0.20,RA,SCT,0.33,0.0,WeatherDisplay:10.37,2013-04-17 12:21:00,
2013-04-17 07:27:00,40.5,38.3,29.94,ENE,68,2.9,4.6,92,0.20,RA,SCT,0.33,0.0,WeatherDisplay:10.37,2013-04-17 12:27:00,
2013-04-17 07:32:00,40.5,38.6,29.94,North,0,2.9,4.0,93,0.16,CLR,SCT,0.33,0.0,WeatherDisplay:10.37,2013-04-17 12:32:00,
2013-04-17 07:37:00,40.5,38.9,29.94,ENE,68,3.3,5.8,94,0.21,RA,SCT,0.38,0.0,WeatherDisplay:10.37,2013-04-17 12:37:00,
2013-04-17 07:42:00,40.5,38.9,29.94,ENE,68,3.3,4.6,94,0.17,RA,SCT,0.38,0.0,WeatherDisplay:10.37,2013-04-17 12:42:00,
2013-04-17 07:47:00,40.5,38.9,29.94,ESE,112,3.3,6.4,94,0.21,RA,SCT,0.43,0.0,WeatherDisplay:10.37,2013-04-17 12:47:00,
2013-04-17 07:52:00,40.5,38.9,29.94,SSW,202,4.3,6.0,94,0.17,RA,SCT,0.43,0.0,WeatherDisplay:10.37,2013-04-17 12:52:00,
2013-04-17 07:57:00,40.5,39.1,29.85,NE,45,8.1,10.4,95,0.21,RA,SCT,0.46,0.0,WeatherDisplay:10.37,2013-04-17 12:57:00,
2013-04-17 08:02:00,40.3,39.0,29.85,East,90,7.8,12.7,95,0.21,RA,SCT,0.46,0.0,WeatherDisplay:10.37,2013-04-17 13:02:00,
2013-04-17 08:07:00,40.5,39.1,29.85,SW,225,3.1,5.8,95,0.16,FEW,SCT,0.46,0.0,WeatherDisplay:10.37,2013-04-17 13:07:00,
2013-04-17 08:13:00,40.5,39.4,29.88,North,0,3.8,5.8,96,0.16,BKN,SCT,0.46,0.0,WeatherDisplay:10.37,2013-04-17 13:13:00,
2013-04-17 08:18:00,40.3,39.2,29.88,NNW,338,4.9,8.1,96,0.16,OVC,SCT,0.46,0.0,WeatherDisplay:10.37,2013-04-17 13:18:00,
2013-04-17 08:23:00,40.3,39.5,29.88,East,90,2.0,6.9,97,0.13,OVC,SCT,0.46,0.0,WeatherDisplay:10.37,2013-04-17 13:23:00,
2013-04-17 08:28:00,40.5,39.7,29.94,West,270,4.3,6.9,97,0.13,OVC,SCT,0.46,0.0,WeatherDisplay:10.37,2013-04-17 13:28:00,
2013-04-17 08:34:00,40.5,39.9,29.94,WSW,248,3.1,4.6,98,0.13,OVC,SCT,0.46,0.0,WeatherDisplay:10.37,2013-04-17 13:34:00,
2013-04-17 08:39:00,40.5,39.7,29.94,NW,315,2.6,3.5,97,0.08,OVC,SCT,0.46,0.0,WeatherDisplay:10.37,2013-04-17 13:39:00,
2013-04-17 08:44:00,40.3,39.5,29.97,NNE,22,0.9,2.3,97,0.04,OVC,SCT,0.46,0.0,WeatherDisplay:10.37,2013-04-17 13:44:00,
2013-04-17 08:49:00,40.3,39.5,29.97,NNE,22,2.4,3.6,97,0.04,OVC,SCT,0.46,0.0,WeatherDisplay:10.37,2013-04-17 13:49:00,
2013-04-17 08:54:00,40.3,39.5,29.97,NNE,22,2.4,3.5,97,0.00,OVC,SCT,0.46,0.0,WeatherDisplay:10.37,2013-04-17 13:54:00,
2013-04-17 08:59:00,40.3,39.5,29.97,North,0,1.6,3.5,97,0.00,OVC,SCT,0.46,0.0,WeatherDisplay:10.37,2013-04-17 13:59:00,
2013-04-17 09:04:00,40.3,39.5,29.97,SSW,202,1.1,2.3,97,0.00,OVC,SCT,0.46,0.0,WeatherDisplay:10.37,2013-04-17 14:04:00,
2013-04-17 09:10:00,40.3,39.5,30.00,SSE,158,2.0,2.3,97,0.00,OVC,SCT,0.46,0.0,WeatherDisplay:10.37,2013-04-17 14:10:00,
2013-04-17 09:15:00,40.3,39.5,30.00,NNE,22,3.1,3.5,97,0.00,OVC,SCT,0.46,0.0,WeatherDisplay:10.37,2013-04-17 14:15:00,
2013-04-17 09:20:00,40.1,39.1,30.00,SSE,158,2.0,2.3,96,0.00,OVC,SCT,0.46,0.0,WeatherDisplay:10.37,2013-04-17 14:20:00,
2013-04-17 09:25:00,40.1,39.1,29.94,West,270,1.1,3.5,96,0.00,OVC,SCT,0.46,0.0,WeatherDisplay:10.37,2013-04-17 14:25:00,
2013-04-17 09:30:00,40.3,39.2,29.94,ENE,68,3.6,5.8,96,0.00,OVC,SCT,0.46,0.0,WeatherDisplay:10.37,2013-04-17 14:30:00,
2013-04-17 09:36:00,40.3,39.2,29.94,SE,135,2.6,3.5,96,0.00,OVC,SCT,0.46,0.0,WeatherDisplay:10.37,2013-04-17 14:36:00,
2013-04-17 09:41:00,40.3,39.2,29.94,NNE,22,2.4,5.8,96,0.00,OVC,SCT,0.46,0.0,WeatherDisplay:10.37,2013-04-17 14:41:00,
2013-04-17 09:46:00,40.3,39.2,29.94,SSE,158,2.2,3.5,96,0.00,OVC,SCT,0.46,0.0,WeatherDisplay:10.37,2013-04-17 14:46:00,
2013-04-17 09:52:00,40.1,39.1,29.94,SSE,158,2.4,5.8,96,0.00,OVC,SCT,0.46,0.0,WeatherDisplay:10.37,2013-04-17 14:52:00,
2013-04-17 09:57:00,39.9,38.9,29.97,SSE,158,2.0,3.5,96,0.00,OVC,SCT,0.46,0.0,WeatherDisplay:10.37,2013-04-17 14:57:00,
2013-04-17 10:02:00,39.9,38.9,29.97,SSE,158,1.1,2.3,96,0.00,OVC,SCT,0.46,0.0,WeatherDisplay:10.37,2013-04-17 15:02:00,
2013-04-17 10:07:00,39.9,38.9,29.97,NNW,338,2.6,4.6,96,0.00,OVC,SCT,0.46,0.0,WeatherDisplay:10.37,2013-04-17 15:07:00,
2013-04-17 10:13:00,39.9,38.9,29.91,ESE,112,3.8,4.6,96,0.00,OVC,SCT,0.46,0.0,WeatherDisplay:10.37,2013-04-17 15:13:00,
2013-04-17 10:18:00,39.7,38.7,29.91,ESE,112,2.9,5.4,96,0.00,OVC,SCT,0.46,0.0,WeatherDisplay:10.37,2013-04-17 15:18:00,
2013-04-17 10:23:00,39.7,38.7,29.91,NNE,22,2.9,4.6,96,0.00,OVC,SCT,0.46,0.0,WeatherDisplay:10.37,2013-04-17 15:23:00,
2013-04-17 10:28:00,39.7,38.7,29.91,ESE,112,2.4,4.6,96,0.00,OVC,SCT,0.46,0.0,WeatherDisplay:10.37,2013-04-17 15:28:00,
2013-04-17 10:33:00,39.7,38.7,29.91,WNW,292,2.4,3.8,96,0.00,OVC,SCT,0.46,0.0,WeatherDisplay:10.37,2013-04-17 15:33:00,
2013-04-17 10:38:00,39.7,38.7,29.91,SSE,158,2.2,3.5,96,0.00,OVC,SCT,0.46,0.0,WeatherDisplay:10.37,2013-04-17 15:38:00,
2013-04-17 10:43:00,39.7,38.7,29.94,ENE,68,2.9,5.8,96,0.00,OVC,SCT,0.46,0.0,WeatherDisplay:10.37,2013-04-17 15:43:00,
2013-04-17 10:48:00,39.6,38.5,29.94,ESE,112,4.3,5.8,96,0.00,OVC,SCT,0.46,0.0,WeatherDisplay:10.37,2013-04-17 15:48:00,
2013-04-17 10:53:00,39.6,38.5,29.94,NNW,338,2.2,3.5,96,0.00,OVC,SCT,0.46,0.0,WeatherDisplay:10.37,2013-04-17 15:53:00,
2013-04-17 10:58:00,39.7,38.7,29.94,NNE,22,2.4,5.9,96,0.00,OVC,SCT,0.46,0.0,WeatherDisplay:10.37,2013-04-17 15:58:00,
2013-04-17 11:04:00,39.7,39.0,29.94,ENE,68,3.1,4.0,97,0.00,OVC,SCT,0.46,0.0,WeatherDisplay:10.37,2013-04-17 16:04:00,
2013-04-17 11:09:00,39.9,39.1,29.94,WNW,292,2.6,4.7,97,0.00,OVC,SCT,0.46,0.0,WeatherDisplay:10.37,2013-04-17 16:09:00,
2013-04-17 11:14:00,39.9,39.1,29.91,North,0,2.9,9.4,97,0.00,OVC,SCT,0.46,0.0,WeatherDisplay:10.37,2013-04-17 16:14:00,
2013-04-17 11:19:00,39.9,39.1,29.91,ESE,112,2.6,6.9,97,0.00,OVC,SCT,0.46,0.0,WeatherDisplay:10.37,2013-04-17 16:19:00,
2013-04-17 11:24:00,40.1,39.3,29.91,ESE,112,4.0,9.2,97,0.00,OVC,SCT,0.46,0.0,WeatherDisplay:10.37,2013-04-17 16:24:00,
2013-04-17 11:29:00,40.3,39.8,29.91,ESE,112,2.9,5.8,98,0.00,OVC,SCT,0.46,0.0,WeatherDisplay:10.37,2013-04-17 16:29:00,
2013-04-17 11:34:00,40.3,39.8,29.91,NNE,22,3.1,8.1,98,0.00,OVC,SCT,0.46,0.0,WeatherDisplay:10.37,2013-04-17 16:34:00,
2013-04-17 11:39:00,40.3,39.8,29.91,North,0,3.6,4.6,98,0.00,OVC,SCT,0.46,0.0,WeatherDisplay:10.37,2013-04-17 16:39:00,
2013-04-17 11:44:00,40.3,39.8,29.88,East,90,3.1,5.9,98,0.00,OVC,SCT,0.46,0.0,WeatherDisplay:10.37,2013-04-17 16:44:00,
2013-04-17 11:50:00,40.3,39.5,29.88,WNW,292,2.9,3.6,97,0.00,OVC,SCT,0.46,0.0,WeatherDisplay:10.37,2013-04-17 16:50:00,
2013-04-17 11:55:00,40.5,39.7,29.91,North,0,3.6,5.8,97,0.00,OVC,SCT,0.46,0.0,WeatherDisplay:10.37,2013-04-17 16:55:00,
2013-04-17 12:00:00,40.5,39.9,29.91,NNE,22,3.6,6.0,98,0.00,OVC,SCT,0.46,0.0,WeatherDisplay:10.37,2013-04-17 17:00:00,
2013-04-17 12:05:00,40.3,39.8,29.91,West,270,3.3,5.8,98,0.00,OVC,SCT,0.46,0.0,WeatherDisplay:10.37,2013-04-17 17:05:00,
2013-04-17 12:10:00,40.5,39.9,29.88,North,0,2.9,5.8,98,0.00,OVC,SCT,0.46,0.0,WeatherDisplay:10.37,2013-04-17 17:10:00,
2013-04-17 12:15:00,40.5,39.9,29.88,NNW,338,3.3,6.9,98,0.00,OVC,SCT,0.46,0.0,WeatherDisplay:10.37,2013-04-17 17:15:00,
2013-04-17 12:20:00,40.5,39.9,29.88,SSE,158,1.6,5.9,98,0.00,OVC,SCT,0.46,0.0,WeatherDisplay:10.37,2013-04-17 17:20:00,
2013-04-17 12:25:00,40.5,39.9,29.88,SSE,158,2.0,3.5,98,0.00,OVC,SCT,0.46,0.0,WeatherDisplay:10.37,2013-04-17 17:25:00,
2013-04-17 12:30:00,40.6,40.1,29.88,NNW,338,1.4,1.6,98,0.00,OVC,SCT,0.46,0.0,WeatherDisplay:10.37,2013-04-17 17:30:00,
2013-04-17 12:35:00,40.6,40.1,29.88,ESE,112,2.9,5.4,98,0.00,OVC,SCT,0.46,0.0,WeatherDisplay:10.37,2013-04-17 17:35:00,
2013-04-17 12:40:00,40.6,40.1,29.88,ESE,112,2.6,3.1,98,0.00,OVC,SCT,0.46,0.0,WeatherDisplay:10.37,2013-04-17 17:40:00,
2013-04-17 12:45:00,40.8,40.3,29.88,NNW,338,2.4,4.3,98,0.00,OVC,SCT,0.46,0.0,WeatherDisplay:10.37,2013-04-17 17:45:00,
2013-04-17 12:50:00,40.8,40.3,29.88,SSE,158,2.2,3.5,98,0.00,OVC,SCT,0.46,0.0,WeatherDisplay:10.37,2013-04-17 17:50:00,
2013-04-17 12:56:00,41.0,40.5,29.88,NNW,338,2.4,4.6,98,0.00,OVC,SCT,0.46,0.0,WeatherDisplay:10.37,2013-04-17 17:56:00,
2013-04-17 13:01:00,41.2,40.7,29.88,NNE,22,2.6,4.6,98,0.00,OVC,SCT,0.46,0.0,WeatherDisplay:10.37,2013-04-17 18:01:00,
2013-04-17 13:07:00,41.2,40.7,29.88,NNW,338,3.1,5.9,98,0.00,OVC,SCT,0.46,0.0,WeatherDisplay:10.37,2013-04-17 18:07:00,
2013-04-17 13:12:00,41.2,40.7,29.85,NNW,338,4.7,6.9,98,0.00,OVC,SCT,0.46,0.0,WeatherDisplay:10.37,2013-04-17 18:12:00,
2013-04-17 13:17:00,41.4,40.8,29.85,NNE,22,3.3,4.6,98,0.00,OVC,SCT,0.46,0.0,WeatherDisplay:10.37,2013-04-17 18:17:00,
2013-04-17 13:22:00,41.4,40.8,29.85,NNW,338,3.8,5.8,98,0.00,OVC,SCT,0.46,0.0,WeatherDisplay:10.37,2013-04-17 18:22:00,
2013-04-17 13:27:00,41.5,41.0,29.88,ENE,68,1.6,3.5,98,0.00,OVC,SCT,0.46,0.0,WeatherDisplay:10.37,2013-04-17 18:27:00,
2013-04-17 13:32:00,41.5,41.0,29.88,South,180,2.9,5.8,98,0.00,OVC,SCT,0.46,0.0,WeatherDisplay:10.37,2013-04-17 18:32:00,
2013-04-17 13:38:00,41.5,41.0,29.88,West,270,2.6,4.6,98,0.00,OVC,SCT,0.46,0.0,WeatherDisplay:10.37,2013-04-17 18:38:00,
2013-04-17 13:43:00,41.7,41.2,29.88,NNW,338,2.6,3.5,98,0.00,OVC,SCT,0.46,0.0,WeatherDisplay:10.37,2013-04-17 18:43:00,
2013-04-17 13:48:00,41.7,41.2,29.88,NNW,338,3.3,5.8,98,0.00,OVC,SCT,0.46,0.0,WeatherDisplay:10.37,2013-04-17 18:48:00,
2013-04-17 13:53:00,41.7,41.2,29.88,South,180,2.4,3.5,98,0.00,OVC,SCT,0.46,0.0,WeatherDisplay:10.37,2013-04-17 18:53:00,
2013-04-17 13:58:00,41.7,41.2,29.88,NNW,338,3.8,4.9,98,0.00,OVC,SCT,0.46,0.0,WeatherDisplay:10.37,2013-04-17 18:58:00,
2013-04-17 14:03:00,41.7,41.2,29.88,NNE,22,2.6,3.5,98,0.00,OVC,SCT,0.46,0.0,WeatherDisplay:10.37,2013-04-17 19:03:00,
2013-04-17 14:08:00,41.7,41.2,29.88,ESE,112,2.6,3.5,98,0.00,OVC,SCT,0.46,0.0,WeatherDisplay:10.37,2013-04-17 19:08:00,
2013-04-17 14:13:00,41.7,41.2,29.88,ENE,68,2.2,3.5,98,0.00,OVC,SCT,0.46,0.0,WeatherDisplay:10.37,2013-04-17 19:13:00,
2013-04-17 14:18:00,41.9,41.4,29.88,ESE,112,1.6,3.6,98,0.00,OVC,SCT,0.46,0.0,WeatherDisplay:10.37,2013-04-17 19:18:00,
2013-04-17 14:23:00,41.9,41.4,29.88,North,0,2.4,5.8,98,0.00,OVC,SCT,0.46,0.0,WeatherDisplay:10.37,2013-04-17 19:23:00,
2013-04-17 14:28:00,41.9,41.4,29.88,NW,315,2.2,4.9,98,0.00,OVC,SCT,0.46,0.0,WeatherDisplay:10.37,2013-04-17 19:28:00,
2013-04-17 14:33:00,42.1,41.6,29.88,WNW,292,3.1,6.0,98,0.00,OVC,SCT,0.46,0.0,WeatherDisplay:10.37,2013-04-17 19:33:00,
2013-04-17 14:38:00,42.1,41.6,29.88,North,0,3.6,4.7,98,0.00,OVC,SCT,0.46,0.0,WeatherDisplay:10.37,2013-04-17 19:38:00,
2013-04-17 14:44:00,42.3,41.7,29.85,East,90,2.0,2.3,98,0.00,OVC,SCT,0.46,0.0,WeatherDisplay:10.37,2013-04-17 19:44:00,
2013-04-17 14:49:00,42.3,41.7,29.85,NE,45,3.1,4.6,98,0.00,OVC,SCT,0.46,0.0,WeatherDisplay:10.37,2013-04-17 19:49:00,
2013-04-17 14:54:00,42.4,41.9,29.85,ENE,68,2.9,5.4,98,0.00,OVC,SCT,0.46,0.0,WeatherDisplay:10.37,2013-04-17 19:54:00,
2013-04-17 14:59:00,42.4,41.9,29.85,North,0,3.1,8.1,98,0.00,OVC,SCT,0.46,0.0,WeatherDisplay:10.37,2013-04-17 19:59:00,
2013-04-17 15:05:00,42.4,41.9,29.85,NNW,338,2.9,4.6,98,0.00,OVC,SCT,0.46,0.0,WeatherDisplay:10.37,2013-04-17 20:05:00,
2013-04-17 15:10:00,42.4,41.9,29.80,North,0,2.4,4.3,98,0.00,OVC,SCT,0.46,0.0,WeatherDisplay:10.37,2013-04-17 20:10:00,
2013-04-17 15:15:00,42.4,41.9,29.80,East,90,3.3,3.5,98,0.00,OVC,SCT,0.46,0.0,WeatherDisplay:10.37,2013-04-17 20:15:00,
2013-04-17 15:20:00,42.4,41.9,29.80,East,90,2.9,7.1,98,0.00,OVC,SCT,0.46,0.0,WeatherDisplay:10.37,2013-04-17 20:20:00,
2013-04-17 15:25:00,42.4,41.9,29.80,NNE,22,3.1,5.8,98,0.00,OVC,SCT,0.46,0.0,WeatherDisplay:10.37,2013-04-17 20:25:00,
2013-04-17 15:30:00,42.4,41.9,29.80,ESE,112,2.6,3.5,98,0.00,OVC,SCT,0.46,0.0,WeatherDisplay:10.37,2013-04-17 20:30:00,
2013-04-17 15:35:00,42.3,41.7,29.80,ESE,112,4.0,7.4,98,0.00,OVC,SCT,0.46,0.0,WeatherDisplay:10.37,2013-04-17 20:35:00,
2013-04-17 15:40:00,42.4,41.9,29.80,NNE,22,2.6,5.8,98,0.00,OVC,SCT,0.46,0.0,WeatherDisplay:10.37,2013-04-17 20:40:00,
2013-04-17 15:45:00,42.4,41.9,29.80,NNW,338,3.6,4.7,98,0.00,OVC,SCT,0.46,0.0,WeatherDisplay:10.37,2013-04-17 20:45:00,
2013-04-17 15:50:00,42.3,41.7,29.80,ENE,68,4.0,5.9,98,0.00,OVC,SCT,0.46,0.0,WeatherDisplay:10.37,2013-04-17 20:50:00,
2013-04-17 15:55:00,42.3,41.7,29.77,ENE,68,4.3,8.1,98,0.00,OVC,SCT,0.46,0.0,WeatherDisplay:10.37,2013-04-17 20:55:00,
2013-04-17 16:01:00,42.1,41.6,29.77,SSE,158,5.4,8.5,98,0.00,OVC,SCT,0.46,0.0,WeatherDisplay:10.37,2013-04-17 21:01:00,
2013-04-17 16:06:00,41.9,41.4,29.77,SSE,158,5.6,5.8,98,0.00,OVC,SCT,0.46,0.0,WeatherDisplay:10.37,2013-04-17 21:06:00,
2013-04-17 16:11:00,42.1,41.6,29.74,SSW,202,4.5,8.1,98,0.00,OVC,SCT,0.46,0.0,WeatherDisplay:10.37,2013-04-17 21:11:00,
2013-04-17 16:17:00,41.9,41.4,29.74,ESE,112,4.3,7.6,98,0.00,OVC,SCT,0.46,0.0,WeatherDisplay:10.37,2013-04-17 21:17:00,
2013-04-17 16:22:00,41.7,41.2,29.74,East,90,3.1,4.6,98,0.00,OVC,SCT,0.46,0.0,WeatherDisplay:10.37,2013-04-17 21:22:00,
2013-04-17 16:27:00,41.7,41.2,29.77,NNE,22,2.9,5.8,98,0.00,OVC,SCT,0.46,0.0,WeatherDisplay:10.37,2013-04-17 21:27:00,
2013-04-17 16:32:00,41.5,41.0,29.77,NNE,22,4.9,8.1,98,0.00,OVC,SCT,0.46,0.0,WeatherDisplay:10.37,2013-04-17 21:32:00,
2013-04-17 16:37:00,41.2,40.7,29.77,NNW,338,3.1,3.8,98,0.00,OVC,SCT,0.46,0.0,WeatherDisplay:10.37,2013-04-17 21:37:00,
2013-04-17 16:42:00,41.0,40.5,29.77,NNE,22,3.3,3.5,98,0.00,OVC,SCT,0.46,0.0,WeatherDisplay:10.37,2013-04-17 21:42:00,
2013-04-17 16:48:00,41.0,40.5,29.77,West,270,2.0,8.1,98,0.00,OVC,SCT,0.46,0.0,WeatherDisplay:10.37,2013-04-17 21:48:00,
2013-04-17 16:53:00,40.8,40.3,29.77,NNW,338,2.4,5.8,98,0.04,RA,SCT,0.50,0.0,WeatherDisplay:10.37,2013-04-17 21:53:00,
2013-04-17 16:58:00,40.6,40.1,29.83,North,0,2.9,3.5,98,0.13,RA,SCT,0.59,0.0,WeatherDisplay:10.37,2013-04-17 21:58:00,
2013-04-17 17:03:00,40.6,40.1,29.83,NNE,22,2.0,2.3,98,0.17,RA,SCT,0.63,0.0,WeatherDisplay:10.37,2013-04-17 22:03:00,
2013-04-17 17:08:00,40.6,40.1,29.83,North,0,1.1,2.3,98,0.17,RA,SCT,0.63,0.0,WeatherDisplay:10.37,2013-04-17 22:08:00,
2013-04-17 17:13:00,40.6,40.1,29.80,WSW,248,2.2,2.3,98,0.17,OVC,SCT,0.63,0.0,WeatherDisplay:10.37,2013-04-17 22:13:00,
2013-04-17 17:18:00,40.6,40.1,29.80,North,0,2.0,2.3,98,0.17,OVC,SCT,0.63,0.0,WeatherDisplay:10.37,2013-04-17 22:18:00,
2013-04-17 17:23:00,40.6,40.1,29.80,NNE,22,1.4,2.6,98,0.21,RA,SCT,0.68,0.0,WeatherDisplay:10.37,2013-04-17 22:23:00,
2013-04-17 17:28:00,40.6,40.1,29.83,West,270,1.4,2.3,98,0.21,RA,SCT,0.68,0.0,WeatherDisplay:10.37,2013-04-17 22:28:00,
2013-04-17 17:34:00,40.8,40.3,29.83,WSW,248,2.9,2.9,98,0.21,OVC,SCT,0.68,0.0,WeatherDisplay:10.37,2013-04-17 22:34:00,
2013-04-17 17:39:00,40.6,40.1,29.83,East,90,4.0,4.6,98,0.25,RA,SCT,0.72,0.0,WeatherDisplay:10.37,2013-04-17 22:39:00,
2013-04-17 17:44:00,40.6,40.1,29.83,NNW,338,2.9,4.6,98,0.25,RA,SCT,0.72,0.0,WeatherDisplay:10.37,2013-04-17 22:44:00,
2013-04-17 17:49:00,40.5,39.9,29.83,North,0,4.0,4.6,98,0.25,OVC,SCT,0.72,0.0,WeatherDisplay:10.37,2013-04-17 22:49:00,
2013-04-17 17:54:00,40.5,39.9,29.83,ENE,68,4.0,6.0,98,0.21,RA,SCT,0.76,0.0,WeatherDisplay:10.37,2013-04-17 22:54:00,
2013-04-17 17:59:00,40.3,39.8,29.77,North,0,4.9,7.1,98,0.16,RA,SCT,0.76,0.0,WeatherDisplay:10.37,2013-04-17 22:59:00,
2013-04-17 18:04:00,40.1,39.6,29.77,NNW,338,5.6,8.1,98,0.12,OVC,SCT,0.76,0.0,WeatherDisplay:10.37,2013-04-17 23:04:00,
2013-04-17 18:09:00,40.1,39.6,29.77,North,0,3.6,6.2,98,0.12,OVC,SCT,0.76,0.0,WeatherDisplay:10.37,2013-04-17 23:09:00,
2013-04-17 18:14:00,40.1,39.6,29.71,NNE,22,3.8,6.9,98,0.12,OVC,SCT,0.76,0.0,WeatherDisplay:10.37,2013-04-17 23:14:00,
2013-04-17 18:19:00,40.1,39.6,29.71,ENE,68,4.3,8.1,98,0.12,OVC,SCT,0.76,0.0,WeatherDisplay:10.37,2013-04-17 23:19:00,
2013-04-17 18:24:00,40.1,39.6,29.71,ESE,112,4.5,8.1,98,0.08,OVC,SCT,0.76,0.0,WeatherDisplay:10.37,2013-04-17 23:24:00,
2013-04-17 18:29:00,40.1,39.6,29.71,WNW,292,6.0,9.2,98,0.08,OVC,SCT,0.76,0.0,WeatherDisplay:10.37,2013-04-17 23:29:00,
2013-04-17 18:34:00,39.9,39.4,29.71,NNW,338,3.6,9.2,98,0.08,OVC,SCT,0.76,0.0,WeatherDisplay:10.37,2013-04-17 23:34:00,
2013-04-17 18:39:00,39.9,39.4,29.71,NNW,338,4.7,10.4,98,0.04,OVC,SCT,0.76,0.0,WeatherDisplay:10.37,2013-04-17 23:39:00,
2013-04-17 18:45:00,39.9,39.4,29.71,North,354,7.0,12.0,98,0.00,BKN,SCT,0.76,4.0,WeatherDisplay:10.37,2013-04-17 23:45:00,
2013-04-17 18:50:00,39.9,39.4,29.71,North,0,5.9,9.2,98,0.04,SCT,,0.76,0.0,WeatherDisplay:10.37,2013-04-17 23:50:00,
2013-04-17 18:55:00,39.9,39.4,29.74,WSW,248,4.7,11.5,98,0.00,CLR,SCT,0.76,0.0,WeatherDisplay:10.37,2013-04-17 23:55:00,
2013-04-17 19:00:00,39.9,39.4,29.74,ENE,68,3.3,9.2,98,0.00,CLR,SCT,0.76,0.0,WeatherDisplay:10.37,2013-04-18 00:00:00,
2013-04-17 19:05:00,39.9,39.4,29.74,SSE,158,4.0,4.6,98,0.00,CLR,SCT,0.76,0.0,WeatherDisplay:10.37,2013-04-18 00:05:00,
2013-04-17 19:11:00,39.7,39.2,29.77,NNE,22,3.8,5.8,98,0.00,CLR,SCT,0.76,0.0,WeatherDisplay:10.37,2013-04-18 00:11:00,
2013-04-17 19:16:00,39.7,39.2,29.77,NNE,22,2.2,5.8,98,0.00,CLR,SCT,0.76,0.0,WeatherDisplay:10.37,2013-04-18 00:16:00,
2013-04-17 19:22:00,39.7,39.2,29.77,South,180,3.3,5.8,98,0.00,CLR,SCT,0.76,95.0,WeatherDisplay:10.37,2013-04-18 00:22:00,
2013-04-17 19:27:00,39.7,39.2,29.83,NNW,338,2.6,6.9,98,0.00,CLR,SCT,0.76,0.0,WeatherDisplay:10.37,2013-04-18 00:27:00,
2013-04-17 19:32:00,39.7,39.2,29.83,NNE,22,2.9,6.9,98,0.45,RA,SCT,1.20,0.0,WeatherDisplay:10.37,2013-04-18 00:32:00,
2013-04-17 19:37:00,39.6,39.0,29.83,NNE,22,3.3,5.6,98,0.45,RA,SCT,1.20,0.0,WeatherDisplay:10.37,2013-04-18 00:37:00,
2013-04-17 19:42:00,39.4,38.9,29.80,WSW,248,5.4,10.4,98,0.45,CLR,SCT,1.20,0.0,WeatherDisplay:10.37,2013-04-18 00:42:00,
2013-04-17 19:48:00,39.2,38.7,29.80,NNW,338,4.9,8.7,98,0.45,CLR,SCT,1.20,0.0,WeatherDisplay:10.37,2013-04-18 00:48:00,
2013-04-17 19:53:00,39.2,38.7,29.80,North,0,5.6,6.9,98,0.45,CLR,SCT,1.20,0.0,WeatherDisplay:10.37,2013-04-18 00:53:00,
2013-04-17 19:58:00,38.8,38.3,29.80,NNE,22,5.4,6.9,98,0.45,CLR,SCT,1.20,0.0,WeatherDisplay:10.37,2013-04-18 00:58:00,
2013-04-17 20:03:00,38.8,38.3,29.80,WNW,292,4.3,9.4,98,0.45,CLR,SCT,1.20,0.0,WeatherDisplay:10.37,2013-04-18 01:03:00,
2013-04-17 20:08:00,38.8,38.3,29.80,North,0,4.0,5.8,98,0.45,CLR,SCT,1.20,0.0,WeatherDisplay:10.37,2013-04-18 01:08:00,
2013-04-17 20:13:00,38.7,38.1,29.83,NNE,22,4.5,8.1,98,0.45,CLR,SCT,1.20,0.0,WeatherDisplay:10.37,2013-04-18 01:13:00,
2013-04-17 20:18:00,38.7,38.1,29.83,NNE,22,5.4,10.4,98,0.45,CLR,SCT,1.20,0.0,WeatherDisplay:10.37,2013-04-18 01:18:00,
2013-04-17 20:23:00,38.5,38.0,29.83,North,0,9.0,13.8,98,0.45,CLR,SCT,1.20,0.0,WeatherDisplay:10.37,2013-04-18 01:23:00,
2013-04-17 20:28:00,38.5,38.0,29.80,NNE,22,4.7,8.1,98,0.45,CLR,SCT,1.20,0.0,WeatherDisplay:10.37,2013-04-18 01:28:00,
2013-04-17 20:33:00,38.5,38.0,29.80,WSW,248,4.5,11.5,98,0.00,CLR,SCT,1.20,0.0,WeatherDisplay:10.37,2013-04-18 01:33:00,
2013-04-17 20:38:00,38.3,37.8,29.80,North,0,4.9,8.1,98,0.00,CLR,SCT,1.20,0.0,WeatherDisplay:10.37,2013-04-18 01:38:00,
2013-04-17 20:43:00,38.3,37.8,29.83,WSW,248,6.4,7.1,98,0.00,CLR,SCT,1.20,0.0,WeatherDisplay:10.37,2013-04-18 01:43:00,
2013-04-17 20:48:00,38.3,37.8,29.83,North,0,4.7,8.5,98,0.00,CLR,SCT,1.20,0.0,WeatherDisplay:10.37,2013-04-18 01:48:00,
2013-04-17 20:53:00,38.3,37.8,29.83,WSW,248,4.7,11.5,98,0.00,CLR,SCT,1.20,0.0,WeatherDisplay:10.37,2013-04-18 01:53:00,
2013-04-17 20:58:00,38.1,37.6,29.83,North,0,5.4,9.8,98,0.00,CLR,SCT,1.20,0.0,WeatherDisplay:10.37,2013-04-18 01:58:00,
2013-04-17 21:03:00,38.1,37.3,29.83,SW,225,4.9,10.4,97,0.00,CLR,SCT,1.20,0.0,WeatherDisplay:10.37,2013-04-18 02:03:00,
2013-04-17 21:08:00,38.1,37.3,29.83,ESE,112,5.6,8.1,97,0.00,CLR,SCT,1.20,0.0,WeatherDisplay:10.37,2013-04-18 02:08:00,
2013-04-17 21:13:00,38.1,37.3,29.83,NNW,338,3.6,8.1,97,0.00,CLR,SCT,1.20,0.0,WeatherDisplay:10.37,2013-04-18 02:13:00,
2013-04-17 21:18:00,38.1,37.3,29.83,NNE,22,5.9,9.2,97,0.00,CLR,SCT,1.20,0.0,WeatherDisplay:10.37,2013-04-18 02:18:00,
2013-04-17 21:23:00,38.1,37.3,29.83,North,0,5.4,7.8,97,0.00,CLR,SCT,1.20,0.0,WeatherDisplay:10.37,2013-04-18 02:23:00,
2013-04-17 21:28:00,38.1,37.3,29.80,NNW,338,6.2,6.9,97,0.00,CLR,SCT,1.20,0.0,WeatherDisplay:10.37,2013-04-18 02:28:00,
2013-04-17 21:33:00,38.1,37.1,29.80,NNW,338,4.9,12.7,96,0.00,CLR,SCT,1.20,0.0,WeatherDisplay:10.37,2013-04-18 02:33:00,
2013-04-17 21:38:00,38.1,37.1,29.80,SSE,158,5.6,10.9,96,0.00,CLR,SCT,1.20,0.0,WeatherDisplay:10.37,2013-04-18 02:38:00,
2013-04-17 21:44:00,38.1,37.1,29.83,SSW,202,5.6,9.4,96,0.00,CLR,SCT,1.20,0.0,WeatherDisplay:10.37,2013-04-18 02:44:00,
2013-04-17 21:49:00,37.9,36.6,29.83,WNW,292,4.0,8.1,95,0.00,CLR,SCT,1.20,0.0,WeatherDisplay:10.37,2013-04-18 02:49:00,
2013-04-17 21:54:00,37.9,36.6,29.83,NNE,22,5.4,8.1,95,0.00,CLR,SCT,1.20,0.0,WeatherDisplay:10.37,2013-04-18 02:54:00,
2013-04-17 21:59:00,37.9,36.6,29.80,NNE,22,4.5,9.2,95,0.00,CLR,SCT,1.20,0.0,WeatherDisplay:10.37,2013-04-18 02:59:00,
2013-04-17 22:04:00,37.9,36.4,29.80,North,0,7.1,10.4,94,0.00,CLR,SCT,1.20,0.0,WeatherDisplay:10.37,2013-04-18 03:04:00,
2013-04-17 22:09:00,37.8,36.2,29.80,ESE,112,5.9,8.1,94,0.00,CLR,SCT,1.20,0.0,WeatherDisplay:10.37,2013-04-18 03:09:00,
2013-04-17 22:14:00,37.8,36.2,29.83,North,0,4.9,9.2,94,0.00,CLR,SCT,1.20,0.0,WeatherDisplay:10.37,2013-04-18 03:14:00,
2013-04-17 22:19:00,37.8,36.2,29.83,NNE,22,5.9,9.2,94,0.00,CLR,SCT,1.20,0.0,WeatherDisplay:10.37,2013-04-18 03:19:00,
2013-04-17 22:24:00,37.6,36.0,29.83,WSW,248,5.9,5.9,94,0.00,CLR,SCT,1.20,0.0,WeatherDisplay:10.37,2013-04-18 03:24:00,
2013-04-17 22:29:00,37.6,36.0,29.83,South,180,5.4,5.8,94,0.00,CLR,SCT,1.20,0.0,WeatherDisplay:10.37,2013-04-18 03:29:00,
2013-04-17 22:34:00,37.6,36.0,29.83,SSW,202,7.4,12.7,94,0.00,CLR,SCT,1.20,0.0,WeatherDisplay:10.37,2013-04-18 03:34:00,
2013-04-17 22:39:00,37.4,35.8,29.83,ENE,68,4.5,6.9,94,0.00,CLR,SCT,1.20,0.0,WeatherDisplay:10.37,2013-04-18 03:39:00,
2013-04-17 22:44:00,37.4,35.8,29.83,WNW,292,5.4,8.1,94,0.00,CLR,SCT,1.20,0.0,WeatherDisplay:10.37,2013-04-18 03:44:00,
2013-04-17 22:50:00,37.4,35.8,29.83,NE,45,4.3,6.9,94,0.00,CLR,SCT,1.20,0.0,WeatherDisplay:10.37,2013-04-18 03:50:00,
2013-04-17 22:55:00,37.2,35.9,29.83,SSE,158,5.6,11.5,95,0.00,CLR,SCT,1.20,0.0,WeatherDisplay:10.37,2013-04-18 03:55:00,
2013-04-17 23:00:00,37.2,35.9,29.83,SSW,202,3.3,6.9,95,0.00,CLR,SCT,1.20,0.0,WeatherDisplay:10.37,2013-04-18 04:00:00,
2013-04-17 23:01:00,37.2,35.9,29.83,NNW,338,3.8,5.8,95,0.00,CLR,SCT,1.20,0.0,WeatherDisplay:10.37,2013-04-18 04:01:00,
2013-04-17 23:02:00,37.0,35.7,29.83,NNW,338,4.0,6.9,95,0.00,CLR,SCT,1.20,0.0,WeatherDisplay:10.37,2013-04-18 04:02:00,
2013-04-17 23:07:00,37.0,36.0,29.83,NNW,338,3.8,5.8,96,0.00,CLR,SCT,1.20,0.0,WeatherDisplay:10.37,2013-04-18 04:07:00,
2013-04-17 23:12:00,36.9,35.8,29.83,NNW,338,6.7,12.7,96,0.00,CLR,SCT,1.20,0.0,WeatherDisplay:10.37,2013-04-18 04:12:00,
2013-04-17 23:17:00,36.9,35.8,29.83,NNE,22,5.9,7.6,96,0.00,CLR,SCT,1.20,0.0,WeatherDisplay:10.37,2013-04-18 04:17:00,
2013-04-17 23:23:00,36.7,35.6,29.83,SSE,158,7.4,13.8,96,0.00,CLR,SCT,1.20,0.0,WeatherDisplay:10.37,2013-04-18 04:23:00,
2013-04-17 23:28:00,36.7,35.6,29.80,ENE,68,5.4,12.7,96,0.00,CLR,SCT,1.20,0.0,WeatherDisplay:10.37,2013-04-18 04:28:00,
2013-04-17 23:33:00,36.7,35.6,29.80,SSE,158,6.4,12.5,96,0.00,CLR,SCT,1.20,0.0,WeatherDisplay:10.37,2013-04-18 04:33:00,
2013-04-17 23:38:00,36.5,35.5,29.80,South,180,5.6,13.8,96,0.00,CLR,SCT,1.20,0.0,WeatherDisplay:10.37,2013-04-18 04:38:00,
2013-04-17 23:43:00,36.5,35.5,29.80,NNE,22,5.4,9.7,96,0.00,CLR,SCT,1.20,0.0,WeatherDisplay:10.37,2013-04-18 04:43:00,
2013-04-17 23:48:00,36.3,35.3,29.80,WSW,248,6.0,9.2,96,0.00,CLR,SCT,1.20,0.0,WeatherDisplay:10.37,2013-04-18 04:48:00,
2013-04-17 23:53:00,36.3,35.3,29.80,South,180,8.1,12.7,96,0.00,CLR,SCT,1.20,0.0,WeatherDisplay:10.37,2013-04-18 04:53:00,
2013-04-17 23:58:00,36.3,35.3,29.80,NNE,22,7.6,11.5,96,0.00,CLR,SCT,1.20,0.0,WeatherDisplay:10.37,2013-04-18 04:58:00,